Weather History for KMRY - March, 2013

Change the Weather History Date:

Sunday, March 31, 2013

  Actual Average Record
Temperature  
Mean Temperature 59 °F 53 °F  
Max Temperature 69 °F 61 °F 80 °F (2011)
Min Temperature 49 °F 46 °F 42 °F (2008)
Degree Days  
Heating Degree Days 6    
Month to date heating degree days 384  
Since 1 July heating degree days 2650  
Cooling Degree Days 0    
Month to date cooling degree days 0  
Year to date cooling degree days 0  
Growing Degree Days 8 (Base 50)    
Moisture  
Dew Point 49 °F    
Average Humidity 74    
Maximum Humidity 100    
Minimum Humidity 48    
Precipitation  
Precipitation 0.06 in - 0.75 in (1998)
Month to date precipitation 1.21  
Year to date precipitation 2.79  
Since 1 July precipitation 11.03  
Sea Level Pressure  
Sea Level Pressure 30.09 in    
Wind  
Wind Speed 6 mph (SSE)    
Max Wind Speed 18 mph    
Max Gust Speed 24 mph    
Visibility 10 miles    
Events      
T = Trace of Precipitation, MM = Missing Value Source: NWS Daily Summary

Daily Weather History Graph

Daily Weather History Graph

Search for Another Location

Airport or City:

Trip Planner

Search our weather history database for the weather conditions in past years. The results will help you decide how hot, cold, wet, or windy it might be!

Date:

Astronomy

Mar. 31, 2013 Rise Set
Actual Time 6:54 AM PDT 7:29 PM PDT
Civil Twilight 6:28 AM PDT 7:55 PM PDT
Nautical Twilight 5:57 AM PDT 8:25 PM PDT
Astronomical Twilight 5:26 AM PDT 8:57 PM PDT
Moon No Moon Rise 9:54 AM PDT (3/31)
Length of Visible Light 13h 26m
Length of Day
12h 34m
Waning Gibbous, 76% of the Moon is Illuminated
Mar 31
Waning Gibbous
Apr 2
Last Quarter
Apr 10
New
Apr 18
First Quarter
Apr 25
Full

Hourly Weather History & Observations

Time (PDT) Temp. Dew Point Humidity Pressure Visibility Wind Dir Wind Speed Gust Speed Precip Events Conditions
12:02 AM 55.4 °F 53.6 °F 94% 30.05 in 10.0 mi Calm Calm - N/A   Mostly Cloudy
12:10 AM 55.4 °F 53.6 °F 94% 30.04 in 10.0 mi South 4.6 mph - N/A   Scattered Clouds
12:54 AM 55.9 °F 52.0 °F 87% 30.08 in 10.0 mi South 8.1 mph - N/A   Clear
1:54 AM 53.1 °F 50.0 °F 89% 30.09 in 10.0 mi Calm Calm - N/A   Clear
2:54 AM 51.1 °F 48.9 °F 92% 30.09 in 10.0 mi Calm Calm - N/A   Clear
3:54 AM 50.0 °F 48.0 °F 93% 30.09 in 10.0 mi Calm Calm - N/A   Clear
4:54 AM 50.0 °F 48.0 °F 93% 30.09 in 10.0 mi East 3.5 mph - N/A   Partly Cloudy
5:54 AM 50.0 °F 46.9 °F 89% 30.10 in 10.0 mi East 3.5 mph - 0.01 in   Partly Cloudy
6:54 AM 48.9 °F 48.0 °F 97% 30.11 in 10.0 mi Calm Calm - N/A   Clear
7:54 AM 53.1 °F 48.0 °F 83% 30.12 in 10.0 mi East 6.9 mph - N/A   Mostly Cloudy
8:54 AM 57.0 °F 50.0 °F 77% 30.11 in 10.0 mi East 8.1 mph - N/A   Clear
9:54 AM 61.0 °F 48.9 °F 64% 30.12 in 10.0 mi East 3.5 mph - N/A   Scattered Clouds
10:54 AM 62.1 °F 50.0 °F 65% 30.12 in 10.0 mi West 5.8 mph - N/A   Mostly Cloudy
11:54 AM 64.0 °F 48.9 °F 58% 30.12 in 10.0 mi West 6.9 mph - N/A   Overcast
12:54 PM 64.9 °F 50.0 °F 58% 30.12 in 10.0 mi WSW 6.9 mph - N/A   Overcast
1:54 PM 66.9 °F 51.1 °F 57% 30.09 in 10.0 mi Calm Calm - N/A   Overcast
2:54 PM 68.0 °F 50.0 °F 52% 30.06 in 10.0 mi SW 18.4 mph 23.0 mph N/A   Mostly Cloudy
3:54 PM 66.9 °F 46.9 °F 49% 30.05 in 10.0 mi SSW 12.7 mph 23.0 mph N/A   Partly Cloudy
4:54 PM 66.9 °F 45.0 °F 45% 30.04 in 10.0 mi South 12.7 mph 19.6 mph N/A   Clear
5:54 PM 64.0 °F 46.0 °F 52% 30.03 in 10.0 mi SSW 12.7 mph 21.9 mph N/A   Scattered Clouds
6:54 PM 62.1 °F 46.9 °F 58% 30.05 in 10.0 mi South 11.5 mph 17.3 mph N/A   Overcast
10:54 PM 57.9 °F 48.9 °F 72% 30.09 in 10.0 mi East 3.5 mph - N/A   Overcast
11:54 PM 57.0 °F 51.1 °F 81% 30.10 in 10.0 mi Calm Calm - N/A   Overcast